Regional Weather Roundup
Issued by NWS

Home | Current Version | Previous Version | Graphics & Text | Print | Product List | Glossary On
Versions: 1 2 3 4 5 6 7 8 9 10 11 12 13 14 15 16 17 18 19 20 21 22 23 24 25 26 27 28 29 30 31 32 33 34 35 36 37 38 39 40 41 42 43 44 45 46 47 48 49 50
000
ASUS43 KTOP 241559
RWRKS

WEATHER ROUNDUP FOR KANSAS
NATIONAL WEATHER SERVICE GOODLAND KS
1100 AM CDT THU MAY 24 2018

NOTE:  "FAIR" INDICATES FEW OR NO CLOUDS BELOW 12,000 FEET WITH NO
SIGNIFICANT WEATHER AND/OR OBSTRUCTIONS TO VISIBILITY.

KSZ001>006-013>018-027>032-041>047-241700-
NORTHWEST KANSAS

CITY           SKY/WX    TMP DP  RH WIND       PRES   REMARKS
GOODLAND       SUNNY     76  59  55 W10       30.00F
HAYS           CLOUDY    73  60  63 S17       30.04R
HILL CITY      SUNNY     78  58  49 SW13G23   30.01S
RUSSELL        MOSUNNY   73  62  68 S22       30.03R
$$

KSZ061>065-074>080-084>089-241700-
SOUTHWEST KANSAS

CITY           SKY/WX    TMP DP  RH WIND       PRES   REMARKS
DODGE CITY     CLOUDY    73  55  53 S12       30.07R
GARDEN CITY    MOSUNNY   77  58  51 SW17G25   30.04F
GREAT BEND     CLOUDY    71  62  73 S16       30.04F
LIBERAL        SUNNY     78  59  51 SW28G33   30.07R
$$

KSZ066>073-081>083-090>101-241700-
SOUTHEAST KANSAS

CITY           SKY/WX    TMP DP  RH WIND       PRES   REMARKS
CHANUTE        MOSUNNY   79  70  74 SE9G18    30.09S
COFFEYVILLE    SUNNY     79  70  74 S10       30.08R
HUTCHINSON     CLOUDY    82  60  47 S15       30.04S
MEDICINE LODGE   N/A     74  64  71 E6        30.05S
NEWTON         MOSUNNY   80  61  52 S18G24    30.07S
PARSONS        SUNNY     78  70  76 S9        30.09S
WICHITA INTL   CLOUDY    75  65  70 S12       30.06S
WICHITA JABRA  CLOUDY    74  65  73 SE9       30.07S
WINFIELD       SUNNY     80  70  71 S8        30.07F
$$

KSZ007>012-019>026-033>040-048>060-102>105-241700-
NORTHEAST KANSAS

CITY           SKY/WX    TMP DP  RH WIND       PRES   REMARKS
CONCORDIA      CLOUDY    80  62  54 SE14      30.01F
EMPORIA        MOSUNNY   77  67  71 S9        30.06F
LAWRENCE       MOSUNNY   80  69  69 SE13      30.07F
MANHATTAN      MOSUNNY   79  68  69 E10       30.02F
OLATHE IND     PTSUNNY   77  68  73 S10       30.11S
OLATHE EXE     MOSUNNY   76  67  73 S10       30.11S
SALINA         CLOUDY    79  65  62 S10       30.05R
TOPEKA BILLARD CLOUDY    79  71  76 SE3       30.06F
TOPEKA FORBES  CLOUDY    81  70  69 S10       30.07F
$$




USA.gov is the U.S. government's official web portal to all federal, state and local government web resources and services.